Location: Nairn
(57.5833°N, 3.8667°W)
Time: 17:33:01
(UTC+00:00)

Cosmos 1271 Rocket - Pass Details

Date: 07 August 2020
Orbit: 499 x 545 km, 81.2° (Epoch: 23 September)

Event Time Altitude Azimuth Distance (km) Brightness Sun altitude
Rises 00:35:52 0° 340° (NNW) 2,610 7.5 -16.0°
Reaches altitude 10° 00:38:06 10° 331° (NNW) 1,723 6.2 -16.0°
Maximum altitude 00:41:34 36° 264° (W) 813 3.6 -16.0°
Enters shadow 00:42:53 27° 222° (SW) 995 3.7 -15.9°
